This is the latest recevied weather packets stored in our database for station/object K7PMV-13. If no packets are shown the sender has not sent any weather packets the latest 10 day(s).
| Time | Temp. | Humidity | Pressure | Rain* | Wind** | Luminosity | Snow |
|---|---|---|---|---|---|---|---|
| 1777939131 | 25.56° C | 36% | 1006.8 hPa | 0 mm | - | 178 W/m² | - |
| 1777938814 | 25.56° C | 36% | 1006.9 hPa | 0 mm | - | 190 W/m² | - |
| 1777938500 | 25.56° C | 36% | 1007 hPa | 0 mm | - | 181 W/m² | - |
| 1777938184 | 25.56° C | 36% | 1007 hPa | 0 mm | - | 209 W/m² | - |
| 1777937863 | 25.56° C | 35% | 1007 hPa | 0 mm | - | 223 W/m² | - |
| 1777937549 | 25.56° C | 35% | 1007 hPa | 0 mm | - | 234 W/m² | - |
| 1777937229 | 25.56° C | 36% | 1007 hPa | 0 mm | - | 253 W/m² | - |
| 1777936904 | 25.56° C | 37% | 1007 hPa | 0 mm | - | 221 W/m² | - |
| 1777936565 | 25° C | 36% | 1006.8 hPa | 0 mm | - | 223 W/m² | - |
| 1777936251 | 25.56° C | 36% | 1006.7 hPa | 0 mm | - | 214 W/m² | - |
| 1777935933 | 25.56° C | 37% | 1006.7 hPa | 0 mm | - | 209 W/m² | - |
| 1777935615 | 25.56° C | 37% | 1006.8 hPa | 0 mm | - | 250 W/m² | - |
| 1777935299 | 25.56° C | 36% | 1007 hPa | 0 mm | - | 271 W/m² | - |
| 1777934977 | 25.56° C | 38% | 1006.9 hPa | 0 mm | - | 294 W/m² | - |
| 1777934650 | 25.56° C | 36% | 1006.9 hPa | 0 mm | - | 338 W/m² | - |
| 1777934336 | 25.56° C | 37% | 1006.9 hPa | 0 mm | - | 350 W/m² | - |
| 1777934018 | 25.56° C | 37% | 1007 hPa | 0 mm | - | 360 W/m² | - |
| 1777933700 | 25.56° C | 37% | 1007.2 hPa | 0 mm | - | 387 W/m² | - |
| 1777933386 | 25.56° C | 37% | 1007.3 hPa | 0 mm | - | 381 W/m² | - |
| 1777933071 | 25.56° C | 38% | 1007.1 hPa | 0 mm | - | 367 W/m² | - |
| 1777932753 | 25.56° C | 39% | 1007.2 hPa | 0 mm | - | 399 W/m² | - |
| 1777932439 | 25° C | 38% | 1007.1 hPa | 0 mm | - | 308 W/m² | - |
| 1777932121 | 25.56° C | 38% | 1007.2 hPa | 0 mm | - | 297 W/m² | - |
| 1777931806 | 25.56° C | 39% | 1007.2 hPa | 0 mm | - | 283 W/m² | - |
| 1777931492 | 25° C | 39% | 1007.3 hPa | 0 mm | - | 301 W/m² | - |
* Rain latest hour (hover to see other rain measurements)
** Current wind speed in m/s (hover to see current wind gust speed)